Persoonlijke zone
Imprimable
Brussels, 19/10/2019, BEL - Adecco Brussels Ekiden
Rapportenlijst > Ekiden - Resultaat
Zoek: Bladzijde: [1]
129 Inputs
 
Klachten worden niet meer geaccepteerd. Resultaten zijn definitief.
PlaatsNrNaamLeef.ClubTijdTkmGem.ScrGemeente
1.873NMBS HR RAIL LOCOMOTIEF NMBS HR RAIL LOCOMOTIEF2:27:573:31 17.1114
2.761BORN TO RUN A SPRL BORN TO RUN2:35:053:41 16.3322
3.809PFIZER_FAST PFIZER2:36:413:43 16.1624
4.665NMBS HR RAIL INTERCITY MBS HR RAIL2:44:143:54 15.4234
5.505CENTRICA BUSINESS SOLUTIO CENTRICA BUSINESS SOLUTIO2:47:123:58 15.1440
6.773UCB CLUB - DREAM TEAM UCB PHARMA2:47:503:59 15.0843
7.485KBC TRIPLE A KBC2:49:184:01 14.9546
8.714OMP 5 OMP2:49:204:01 14.9547
9.212ADECCO -TEAM 3M-1 ADECCO2:49:444:02 14.9248
10.614ICSENSE1 ICSENSE2:50:264:03 14.8649
11.799VPK RACING VPK PAPER2:51:524:05 14.7353
12.728PESSEMIER TRANSPORT PESSEMIER NV2:54:534:09 14.4859
13.648KARTESIA KARTESIA3:01:294:19 13.9574
14.526COLRUYT GROUP THE MOJO’S COLRUYT GROUP SERVICES NV3:02:334:20 13.8777
15.397BNP PARIBAS FORTIS BNP PARIBAS FORTIS3:04:544:23 13.6983
16.660LOBI LOBI3:05:264:24 13.6586
17.240STO FRANCE STO SAS3:09:304:30 13.3693
18.209SPRING ADECCO3:09:384:30 13.3595
19.926ORANGE TURTLES 3.0 3:10:594:32 13.26101
20.538CULIRUNNERS CULINOR3:11:214:33 13.23103
21.798VPK HQ VPK PAPER3:13:124:35 13.10109
22.744SIEMENS ITS SIEMENS3:13:234:35 13.09110
23.1057WAVENET WAVENET3:14:454:37 13.00117
24.685PR UNITED NATIONALE BANK VAN BELGIË3:15:004:38 12.98120
25.765STEF SAINTES STEF TRANSPORT SAINTES3:15:114:38 12.97122
26.1129SOPRA STERIA 2 SOPRA STERIA3:15:294:38 12.95123
27.576EMERSON SPIKES EMERSON PROCESS MANAGEMEN3:17:214:41 12.83124
28.220ADECCO_DON(U)'T WALK ADECCO3:17:344:41 12.81125
29.419CANDRIAM - TEAM 3 CANDRIAM3:18:004:42 12.79128
30.424HEIDELBERGCEMENT - LES BÉ CBR3:18:464:43 12.74132
31.1014CM REFAC CHRISTELIJKE MUTUALITEIT3:19:134:44 12.71134
32.715ALL YOU NEED IS RUN ORANGE BELGIUM3:19:254:44 12.70137
33.204ADECCO_TEAM RENEWI ADECCO3:19:344:44 12.69138
34.935SIX AND THE CITY 3:21:044:46 12.59149
35.423CAPGEMINI 3 CAPGEMINI BELGIUM3:21:254:47 12.57152
36.701NUMECA 4 NUMECA INTERNATIONAL3:21:314:47 12.56153
37.767TRASIS TEAM TRASIS3:21:484:47 12.55157
38.1036EXCEL-ERATORS FEDEX EXPRESS3:21:594:48 12.53158
39.524COLRUYT GROUP FINE FOOD T COLRUYT GROUP3:22:124:48 12.52159
40.801FOCUS SUPPORT PFIZER3:23:064:49 12.47165
41.461KBC THE MO'S KBC3:23:584:51 12.41173
42.736PYTHON PREDICTIONS PYTHON PREDICTIONS3:24:154:51 12.40176
43.907ING RÉGION CENTRE 3:24:254:51 12.39177
44.724THE RUNNING MACHINES P&V ASSURANCES SCRL3:24:294:51 12.38178
45.384AVERY DENNISON TEAM AVERY DENNISON3:25:244:53 12.33182
46.349VLAIO TEAM 2 AGENTSCHAP INNOVEREN EN O3:26:304:54 12.26193
47.456KBC TREASURY LIGHT KBC3:26:364:54 12.25195
48.569ECOPHOS 2 ECOPHOS3:26:534:55 12.24197
49.739DUTCH RUNAULT RUNNERS RENAULT BELGIE LUXEMBURG3:27:584:56 12.17204
50.571HERMES ECS SA TEAM FAST ECS HERMÈS SA3:28:374:57 12.14211
51.527COLRUYT BOUW TEAM COLRUYTGROUP3:30:285:00 12.03233
52.727PARTENA PROFESSIONAL PARTENA PROFESSIONAL3:30:455:00 12.01238
53.1130SOPRA STERIA 1 SOPRA STERIA3:31:175:01 11.98242
54.426HEIDELBERGCEMENT - TEAM 2 CBR3:32:065:02 11.94253
55.473KBC - THE RETURN OF GCI KBC3:32:375:03 11.91257
56.616ICSENSE3 ICSENSE3:32:395:03 11.91258
57.567EASI 2 EASI3:32:595:03 11.89262
58.636INTERNATIONAL POST CORPOR INTERNATIONAL POST CORPOR3:33:275:04 11.86268
59.104NTT BELGIUM TEAM 2 NTT BELGIUM3:34:095:05 11.82274
60.615ICSENSE2 ICSENSE3:34:505:06 11.79281
61.438PRAYON TAZOTEAM PRAYON SA3:35:355:07 11.74288
62.378ATHLON ATHLETICS ATHLON CAR LEASE BELGIUM 3:35:595:08 11.72294
63.508CERTAM | LEXAM 2 CERTAM BEDRIJFSREVISOREN 3:36:045:08 11.72297
64.238NVISO'S FALCONS NVISO3:36:465:09 11.68307
65.471KBC - RUDI KBC3:36:575:09 11.67309
66.430PRAYON TO THE MOON PRAYON3:37:065:09 11.66312
67.410BE-LB-INSP 1 BRUXELLES ENVIRONNEMENT3:37:125:09 11.66315
68.958LES ORANGES PRESSÉS 3:37:265:10 11.64321
69.664ONE MARS MARS BELGIUM NV3:38:345:11 11.58332
70.658LEICA GEOSYSTEMS LEICA GEOSYSTEMS3:38:545:12 11.57340
71.613HYDROMETAL TEAM HYDROMETAL3:38:555:12 11.57341
72.617IDA MEDIAFOUNDRY IDA MEDIAFOUNDRY3:38:575:12 11.56342
73.738TEAM QUINAPTIS QUINAPTIS BVBA3:39:405:13 11.53355
74.478KBC CORPORATE ANTI-LOPEN KBC3:39:595:13 11.51361
75.789VEOLIA04 VEOLIA NV-SA3:40:255:14 11.49368
76.719ORTEC BELGIUM B ORTEC3:40:285:14 11.48369
77.787VEOLIA02 VEOLIA NV-SA3:40:515:15 11.46376
78.657THE LACO BULLETS LACO3:41:175:15 11.44380
79.601TEAM GLUO GLUO3:41:255:15 11.43382
80.506CENTRICA BUSINESS SOLUTIO CENTRICA BUSINESS SOLUTIO3:41:355:16 11.43385
81.944STORM RIDERS 3:41:375:16 11.42386
82.689NELSONRUNNERS - MOEILIJKE NELSON LABS NV3:42:095:16 11.40392
83.259SKEYES 2 SKEYES3:42:115:16 11.40393
84.661LOVELD 1 LOVELD3:42:295:17 11.38399
85.518MAGAZIJN TECHNISCHE DIENS COLRUYT3:42:435:17 11.37402
86.1051D.A.S. AREA MANAGERS DAS3:43:015:18 11.35409
87.507CERTAM | LEXAM 1 CERTAM BEDRIJFSREVISOREN 3:43:435:19 11.32425
88.1122AW(TC) EUROPE_2 AW EUROPE3:43:465:19 11.31427
89.428HEIDELBERGCEMENT - TEAM 4 CBR3:43:565:19 11.31431
90.951N°1 3:44:035:19 11.30433
91.416BUY WAY 2 BUY WAY PERSONAL FINANCE3:44:065:19 11.30434
92.710OMP 1 OMP3:44:145:19 11.29437
93.553DP-TAX DEGROOF PETERCAM3:44:185:19 11.29439
94.699NUMECA 2 NUMECA INTERNATIONAL3:44:235:20 11.28443
95.626DERBIBOYS IMPERBEL3:44:595:20 11.25450
96.580COLRUYT GROUP DATS 24 EOLY, COLRUYT GROUP ENERG3:45:035:20 11.25451
97.813THE NIGHTRUNNERS PFIZER3:45:155:21 11.24452
98.669IQ POWER MERCEDES-BENZ BELGIUM LUX3:45:495:22 11.21468
99.499KBC - BLOOD, SWEAT AND BE KBC GROEP3:46:045:22 11.20474
100.401A SCHETS & PARTNERS CVBA A SCHETS EN PARTRNERS CVB3:46:285:23 11.18483
101.1059WHIRLPOOL I WHIRLPOOL BELUX3:47:045:23 11.15491
102.1133MEDIAMARKT CLUB RUNNERS 3:47:485:24 11.11511
103.766THE BELGIAN THE BELGIAN3:48:475:26 11.07526
104.950ATH BEST TEAM 3:49:075:26 11.05532
105.604UNICEF-GSK 1 GSK3:49:235:27 11.04536
106.1046LES RAMPISTES TNT EXPRESS3:49:465:27 11.02543
107.199ADECCO_HEALTHY ADECCO3:49:525:27 11.01544
108.237NVISO'S EAGLES NVISO3:50:325:28 10.98554
109.432PRAYON LES ROCHES PRAYON LES ROCHES3:51:475:30 10.92574
110.487KBC THE BLUE PRIVATE BANK KBC3:52:375:31 10.88596
111.984LES FOIES DE VEAUX 3:53:225:32 10.85618
112.373ASAHI KASEI 1 ASAHI KASEI BIOPROCESS EU3:55:455:36 10.74658
113.439PRAYON TV PRAYON SA3:57:265:38 10.66690
114.905[RBU] UNICORNS UNITED 3:58:385:40 10.61708
115.389X-TREEM BAM CONTRACTORS NV3:58:545:40 10.60712
116.671MB TEAM 2 MERCEDES-BENZ BELGIUM LUX3:59:265:41 10.57722
117.749SIEMENS SI TOTALLY INTEGR SIEMENS4:03:575:47 10.38778
118.572HERMES ECS SA TEAM FUN ECS HERMÈS SA4:04:075:48 10.37781
119.525COLRUYT GROUP PIONEERS COLRUYT GROUP SERVICES4:05:285:50 10.31808
120.343BX-BORDER ACTISOC - BPOST4:06:205:51 10.28814
121.599X-MEN KILLERS GEFCO BENELUX4:07:565:53 10.21834
122.963KE'S ZONE WEST & CO 4:09:035:55 10.17843
123.198ADECCO_ONESTPASSAUVÉ ADECCO4:09:295:55 10.15845
124.954WESTSIDE 4:11:255:58 10.07862
125.795VOLVO CAR BELUX 1 VOLVO CAR BELUX4:11:345:58 10.06864
126.1009CM LAMA CHRISTELIJKE MUTUALITEIT4:20:276:11 9.72930
DNF586FESG FESG BVBA
DNF645ISS TEAM 3 ISS FACILITY SERVICES
DNF1060WHIRLPOOL II WHIRLPOOL BELUX
DNF: abandon; DSQ: disqualifié; Vitesse en km/h
Bladzijde: [1]